Weather History for KRAL - April, 2013

Change the Weather History Date:

Wednesday, April 10, 2013

  Actual Average Record
Temperature  
Mean Temperature 66 °F 62 °F  
Max Temperature 84 °F 74 °F 98 °F (1988)
Min Temperature 47 °F 49 °F 30 °F (1953)
Degree Days  
Heating Degree Days 0 4  
Month to date heating degree days 14 46  
Since 1 July heating degree days 1130 1359  
Cooling Degree Days 1 1  
Month to date cooling degree days 7 9  
Year to date cooling degree days 45 30  
Growing Degree Days 16 (Base 50)    
Moisture  
Dew Point 22 °F    
Average Humidity 33    
Maximum Humidity 61    
Minimum Humidity 5    
Precipitation  
Precipitation 0.00 in 0.03 in 0.50 in (1965)
Month to date precipitation T 0.23  
Year to date precipitation 2.11 8.22  
Since 1 July precipitation 4.02  
Snow  
Snow 0.00 in - - ()
Month to date snowfall 0.0  
Year to date snowfall 0.0  
Since 1 July snowfall 0.0  
Snow Depth 0.00 in    
Sea Level Pressure  
Sea Level Pressure 29.99 in    
Wind  
Wind Speed 6 mph (NW)    
Max Wind Speed 21 mph    
Max Gust Speed 26 mph    
Visibility 10 miles    
Events      
T = Trace of Precipitation, MM = Missing Value Source: NWS Daily Summary

Daily Weather History Graph

Daily Weather History Graph

Search for Another Location

Airport or City:

Trip Planner

Search our weather history database for the weather conditions in past years. The results will help you decide how hot, cold, wet, or windy it might be!

Date:

Astronomy

Apr. 10, 2013 Rise Set
Actual Time 6:24 AM PDT 7:17 PM PDT
Civil Twilight 5:59 AM PDT 7:43 PM PDT
Nautical Twilight 5:29 AM PDT 8:13 PM PDT
Astronomical Twilight 4:58 AM PDT 8:44 PM PDT
Moon 6:25 AM PDT (4/10) 7:54 PM PDT (4/10)
Length of Visible Light 13h 43m
Length of Day
12h 52m
New Moon, 0% of the Moon is Illuminated
Apr 10
New Moon
Apr 18
First Quarter
Apr 25
Full
May 2
Last Quarter
May 9
New

Hourly Weather History & Observations

Time (PDT) Temp. Dew Point Humidity Pressure Visibility Wind Dir Wind Speed Gust Speed Precip Events Conditions
12:53 AM 55.0 °F 33.1 °F 43% 29.99 in 10.0 mi Calm Calm - N/A   Clear
1:53 AM 53.1 °F 34.0 °F 48% 29.99 in 10.0 mi Calm Calm - N/A   Clear
2:53 AM 52.0 °F 33.1 °F 49% 29.98 in 10.0 mi Calm Calm - N/A   Clear
3:53 AM 48.0 °F 35.1 °F 61% 29.98 in 10.0 mi Calm Calm - N/A   Clear
4:53 AM 50.0 °F 33.1 °F 52% 29.99 in 10.0 mi SW 4.6 mph - N/A   Clear
5:53 AM 59.0 °F 23.0 °F 25% 30.00 in 10.0 mi Calm Calm - N/A   Clear
6:53 AM 63.0 °F 17.1 °F 17% 30.02 in 10.0 mi ENE 3.5 mph - N/A   Clear
7:53 AM 68.0 °F 17.1 °F 14% 30.04 in 10.0 mi NNE 4.6 mph - N/A   Clear
8:53 AM 72.0 °F 16.0 °F 12% 30.04 in 10.0 mi North 8.1 mph - N/A   Clear
9:53 AM 75.9 °F 14.0 °F 10% 30.04 in 10.0 mi NNE 10.4 mph 18.4 mph N/A   Clear
10:53 AM 77.0 °F 10.9 °F 8% 30.04 in 10.0 mi North 9.2 mph 19.6 mph N/A   Clear
12:53 PM 82.0 °F 7.0 °F 6% 30.00 in 10.0 mi North 12.7 mph 21.9 mph N/A   Clear
1:53 PM 82.0 °F 18.0 °F 9% 29.98 in 10.0 mi NW 10.4 mph 16.1 mph N/A   Clear
2:53 PM 81.0 °F 14.0 °F 8% 29.96 in 10.0 mi West 9.2 mph 18.4 mph N/A   Clear
3:53 PM 84.0 °F 15.1 °F 8% 29.94 in 10.0 mi West 8.1 mph - N/A   Clear
4:53 PM 80.1 °F 19.9 °F 11% 29.93 in 10.0 mi West 16.1 mph 23.0 mph N/A   Clear
5:53 PM 77.0 °F 21.0 °F 12% 29.93 in 10.0 mi West 13.8 mph 24.2 mph N/A   Clear
6:53 PM 73.9 °F 26.1 °F 17% 29.94 in 10.0 mi West 10.4 mph - N/A   Clear
7:53 PM 70.0 °F 25.0 °F 18% 29.95 in 10.0 mi West 8.1 mph - N/A   Clear